sat.trackr.live / text

‹ back to catalog

STARLINK-4535

NORAD 53392 · 2022-097E

PAYLOAD ACTIVE UNKNOWN

§ Identity

Operator
Country
US
Launch date
2022-08-10
Launch site
AFETR
Launch vehicle
Mass (kg)
RCS (m²)

Purposes: comms

External: N2YO · Heavens-Above · Gunter

§ Orbital elements

Epoch: 2026-09-20T03:33:03.033792Z

Period
94.01 min
Inclination
53.1608°
Eccentricity
0.0001222
Mean motion
15.31686426 rev/d
Perigee alt
469.9 km
Apogee alt
471.6 km
Semi-major
6,848.9 km
B*
-6.1682e-5
RAAN
320.9982°
Arg perigee
100.6902°
Mean anomaly
259.4237°
Rev number
22,816

§ Raw data

STARLINK-45351 53392U 22097E   26263.14795178 -.00002278  00000+0 -61682-4 0  99902 53392  53.1608 320.9982 0001222 100.6902 259.4237 15.31686426228168

JSON: /api/v1/satellites/53392 · /tle

For live sub-satellite position, see the globe view (requires WebGL).

§ Visibility from observer

Set your observer location to see the next 7 days of passes ≥ 10°. The values pass through the URL so the page stays shareable.

No JS? Fill the form by hand. The geolocation button needs JavaScript.